Location: Most
(50.5133°N, 13.6207°E)
Time: 01:38:11
(UTC+02:00)

ISS - Pass Details

Date: 23 September 2021
Orbit: 417 x 423 km, 51.6° (Epoch: 22 October)

Event Time Altitude Azimuth Distance (km) Brightness Sun altitude
Rises 20:04:11 0° 256° (WSW) 2,359 1.3 -10.8°
Reaches altitude 10° 20:06:16 10° 256° (WSW) 1,498 0.1 -11.1°
Maximum altitude 20:09:38 88° 341° (NNW) 425 -3.8 -11.6°
Enters shadow 20:12:06 17° 76° (ENE) 1,130 -2.1 -12.0°
